Location: Newark
(39.0622°N, 106.5590°E)
Time: 11:07:06
(UTC+00:00)

Explorer 11/Cluster Stage 4 - All Passes

Search period start: 26 January 2020 00:00
Search period end: 05 February 2020 00:00
Orbit: 467 x 1259 km, 28.8° (Epoch: 25 January)

Date Brightness Start Highest point End Pass type
(mag) Time Alt. Az. Time Alt. Az. Time Alt. Az.
26 Jan - 04:51:23 10° SSW 04:56:25 18° SSE 05:01:27 10° ESE daylight
26 Jan - 06:37:45 10° SW 06:44:51 32° SSE 06:51:33 10° ESE daylight
26 Jan - 08:26:12 10° WSW 08:33:31 38° S 08:39:59 10° ESE daylight
26 Jan - 10:15:43 10° WSW 10:21:54 28° SSW 10:27:14 10° SE daylight
26 Jan - 12:07:58 10° SW 12:09:35 11° SSW 12:11:07 10° SSW visible
27 Jan - 04:39:57 10° SSW 04:45:24 20° SSE 04:50:55 10° ESE daylight
27 Jan - 06:26:38 10° SW 06:33:51 35° S 06:40:48 10° ESE daylight
27 Jan - 08:15:10 10° WSW 08:22:34 39° S 08:29:13 10° ESE daylight
27 Jan - 10:04:46 10° WSW 10:10:57 27° SSW 10:16:23 10° SE daylight
28 Jan - 04:28:38 10° SSW 04:34:22 22° SSE 04:40:16 10° ESE daylight
28 Jan - 06:15:33 10° SW 06:22:52 36° S 06:30:01 10° ESE daylight
28 Jan - 08:04:08 10° WSW 08:11:35 39° S 08:18:25 10° ESE daylight
28 Jan - 09:53:50 10° WSW 10:00:00 26° SSW 10:05:30 10° SSE daylight
29 Jan - 04:17:25 10° SSW 04:23:20 24° SSE 04:29:33 10° ESE daylight
29 Jan - 06:04:32 10° SW 06:11:51 38° S 06:19:10 10° ESE daylight
29 Jan - 07:53:10 10° WSW 08:00:37 38° S 08:07:34 10° ESE daylight
29 Jan - 09:42:56 10° WSW 09:49:01 24° SSW 09:54:31 10° SSE daylight
30 Jan - 04:06:18 10° SSW 04:12:19 26° SSE 04:18:45 10° ESE daylight
30 Jan - 05:53:33 10° WSW 06:00:51 39° S 06:08:17 10° ESE daylight
30 Jan - 07:42:13 10° WSW 07:49:37 37° S 07:56:40 10° SE daylight
30 Jan - 09:32:06 10° WSW 09:38:01 23° SSW 09:43:29 10° SSE daylight
31 Jan - 02:12:04 10° SSE 02:13:26 11° SE 02:14:50 10° SE daylight
31 Jan - 03:55:15 10° SW 04:01:19 27° SSE 04:07:53 10° ESE daylight
31 Jan - 05:42:37 10° WSW 05:49:52 39° S 05:57:22 10° ESE daylight
31 Jan - 07:31:18 10° WSW 07:38:37 36° S 07:45:43 10° SE daylight
31 Jan - 09:21:19 10° WSW 09:27:00 21° SSW 09:32:21 10° SSE daylight
01 Feb - 02:00:03 10° SSE 02:02:26 12° SSE 02:04:55 10° SE daylight
01 Feb - 03:44:17 10° SW 03:50:19 29° SSE 03:56:59 10° ESE daylight
01 Feb - 05:31:44 10° WSW 05:38:52 40° S 05:46:24 10° ESE daylight
01 Feb - 07:20:26 10° WSW 07:27:37 35° SSW 07:34:43 10° SE daylight
01 Feb - 09:10:37 10° WSW 09:15:59 19° SSW 09:21:07 10° SSE daylight
02 Feb - 01:48:33 10° S 01:51:27 13° SSE 01:54:34 10° ESE daylight
02 Feb - 03:33:22 10° SW 03:39:20 30° SSE 03:46:02 10° ESE daylight
02 Feb - 05:20:54 10° WSW 05:27:53 40° S 05:35:25 10° ESE daylight
02 Feb - 07:09:36 10° WSW 07:16:36 33° SSW 07:23:40 10° SE daylight
02 Feb - 09:00:01 10° WSW 09:04:57 17° SSW 09:09:45 10° S daylight
03 Feb - 01:37:16 10° S 01:40:29 14° SSE 01:44:00 10° ESE daylight
03 Feb - 03:22:32 10° SW 03:28:23 31° SSE 03:35:04 10° ESE daylight
03 Feb - 05:10:05 10° WSW 05:16:54 39° S 05:24:23 10° ESE daylight
03 Feb - 06:58:49 10° WSW 07:05:35 31° SSW 07:12:33 10° SE daylight
03 Feb - 08:49:32 10° WSW 08:53:55 15° SSW 08:58:13 10° S daylight
04 Feb - 01:26:08 10° S 01:29:34 15° SSE 01:33:19 10° ESE daylight
04 Feb - 03:11:44 10° SW 03:17:26 32° SSE 03:24:04 10° ESE daylight
04 Feb - 04:59:20 10° WSW 05:05:57 38° S 05:13:19 10° ESE daylight
04 Feb - 06:48:05 10° WSW 06:54:36 29° SSW 07:01:22 10° SE daylight
04 Feb - 08:39:18 10° SW 08:42:53 13° SSW 08:46:28 10° S daylight
